www.pogodaiklimat.ru

Погода и климат >> Архив погоды >> Россия >> Калининградская область >> Балтийск


ПОГОДА в Балтийске

  • Прогноз погоды в Балтийске
  • Монитор погоды в Балтийске

АРХИВ ПОГОДЫ в Балтийске

Время (UTC), дата Ветер
(напр.,м/с)
 
Видим.   Явления Облачность Т
(С)
Тd
(С)
f
(%)
Тe
(С)
Тes
(С)
Комфортность P
(гПа)
Po
(гПа)
Тmin
(С)
Tmax
(С)
R
(мм)
R24
(мм)
S
(см)
15 11.04 С 3-5
{7}
20 км 9/9 600 м
[Cu med, cong]
+3.2 -2.6 66 -0 -0 1025.1 1024.6
18 11.04 С 3-5
{7}
20 км 8/8 600 м
[Cu Sc]
+2.9 -1.8 71 -1 -1 1025.9 1025.3 +4.1
21 11.04 СВ 4-8
{8}
20 км 8/8 600 м
[Cu Sc]
+3.1 -2.2 68 -1 -1 1026.7 1026.1
00 12.04 СВ 2-4
{8}
20 км н/о +2.3 -3.4 66 -1 -1 1027.4 1026.7
03 12.04 СВ 3-6
{6}
20 км 8/8 600 м
[Cu Sc]
+1.8 -4.4 63 -2 -2 1027.5 1027.0 +1.2
06 12.04 В 3-5
{7}
20 км 9/9 600 м
[Cu Sc]
+1.8 -5.5 58 -2 -2 1028.1 1027.6 +1.2
09 12.04 СВ 3-5
{7}
20 км 10/10 600 м
[Cu Sc]
+3.6 -5.5 51 0 0 1028.2 1027.7
12 12.04 СВ 4-6
{7}
20 км 8/8 600 м
[Sc diur, vesp]
+5.4 -5.2 46 +2 +3 1027.8 1027.2
15 12.04 С 5-8
{9}
20 км 1/0
[Ci sp]
+4.7 -3.0 57 0 +2 1027.1 1026.5
18 12.04 С 3-6
{10}
20 км 3/3 600 м
[Sc]
+2.8 -0.8 77 -1 -1 1027.1 1026.6 +6.2
21 12.04 СВ 3-5
{6}
20 км 3/3 600 м
[Sc]
+2.9 -0.9 76 -1 -1 1027.4 1026.9
00 13.04 СВ 3-6
{7}
20 км 3/3 600 м
[Sc]
+0.7 -5.1 65 -3 -3 1028.2 1027.7
03 13.04 СВ 4-7
{8}
20 км ясно -0.1 -5.3 68 -5 -5 1028.3 1027.8 -0.2
06 13.04 СВ 3-7
{9}
20 км ясно +0.7 -5.6 63 -3 -1 1028.3 1027.8 -0.5
09 13.04 СВ 4-7
{8}
20 км ясно +3.7 -5.7 50 -0 +7 1028.4 1027.9
12 13.04 В 3-6
{8}
20 км 3/0
[Ci sp]
+6.6 -5.6 41 +4 +12 1027.8 1027.2
15 13.04 СВ 5-7
{9}
20 км 3/0
[Ci sp]
+7.6 -3.6 45 +4 +6 1026.5 1025.9
18 13.04 С 3-5
{9}
20 км 4/0
[Ci sp]
+4.9 -1.5 63 +2 +2 1026.7 1026.2 +8.7
21 13.04 СВ 3-6
{6}
20 км 9/0
[Ci sp]
+5.3 -1.4 62 +2 +2 1027.3 1026.8
00 14.04 СВ 3-6
{8}
20 км 3/0
[Ci fib]
+3.9 -2.4 63 +1 +1 1027.8 1027.3
03 14.04 СВ 3-5
{7}
20 км 8/0
[Ci fib]
+2.6 -2.9 67 -1 -1 1028.2 1027.7 +2.6
06 14.04 СВ 3-5
{6}
20 км 3/0
[Ci fib]
+3.7 -3.2 61 0 +2 1029.5 1029.0 +2.3
09 14.04 В 3-6
{7}
20 км ясно +8.0 -4.7 40 +6 +14 1030.0 1029.5
12 14.04 СВ 4-7
{8}
20 км 1/0
[Ci fib]
+10.3 -4.3 36 +8 +15 1029.7 1029.0
15 14.04 С 5-8
{10}
20 км 1/0
[Ci sp]
+9.4 -4.9 36 +7 +9 1029.3 1028.7
18 14.04 С 3-6
{9}
20 км 3/3 600 м
[Sc diur, vesp]
+5.7 -2.7 55 +3 +3 1029.6 1029.0 +10.7
21 14.04 СВ 3-5
{7}
20 км ясно +5.3 -1.4 62 +2 +2 1030.6 1030.0
00 15.04 СВ 2-4
{7}
20 км ясно +3.8 -1.3 69 +1 +1 1031.2 1030.6
03 15.04 СВ 1-2
{5}
20 км ясно +2.2 -1.0 79 +1 +1 1031.2 1030.6 +2.1
06 15.04 СВ 3-5
{5}
20 км ясно +4.8 -2.2 60 +2 +4 1031.6 1031.1 +1.6
09 15.04 СЗ 3-4
{6}
20 км 1/1 600 м
[Cu Sc]
+7.3 +1.0 64 +5 +12 1031.6 1031.1
12 15.04 С 5-9
{10}
20 км 1/1 600 м
[Sc diur, vesp]
+6.7 +1.3 68 +3 +8 1030.3 1029.7
15 15.04 С 4-6
{11}
20 км 1/1 600 м
[Sc diur, vesp]
+6.7 +1.6 70 +3 +5 1028.8 1028.2
18 15.04 С 3-6
{8}
20 км 8/3 600 м
[Cu Sc Ci fib]
+6.2 -3.0 52 +4 +4 1027.9 1027.4 +8.6
21 15.04 В 2-5
{7}
20 км 9/4 600 м
[Cu Sc Ci fib]
+6.8 -2.1 53 +5 +5 1027.9 1027.4
00 16.04 В 2-4
{7}
20 км 6/1 600 м
[Sc Ci fib]
+4.9 -5.1 48 +3 +3 1028.3 1027.8
03 16.04 В 2-3
{6}
20 км 4/0
[Ci fib]
+3.2 -4.2 58 +1 +1 1028.6 1028.1 +3.0
06 16.04 В 3-6
{6}
20 км ясно +4.2 -3.9 56 +1 +3 1029.8 1029.3 +2.6
09 16.04 В 3-6
{6}
20 км ясно +9.2 -5.6 35 +8 +16 1030.3 1029.8
12 16.04 З 3-4
{6}
20 км ясно +9.9 -0.8 47 +8 +17 1029.6 1029.1
15 16.04 С 3-6
{8}
20 км 9/0
[Ci fib]
+8.5 -3.1 44 +7 +9 1029.3 1028.8
18 16.04 С 2-3
{7}
20 км 8/3 600 м
[Cu Sc As trans]
+6.2 +1.1 70 +4 +4 1029.1 1028.6 +12.1
21 16.04 С 1-2
{4}
20 км 3/3 600 м
[Cu Sc]
+4.6 +2.4 86 +3 +3 1028.9 1028.4
00 17.04 штиль 0-1
{3}
20 км 3/3 600 м
[Cu Sc]
+3.1 +1.4 89 +2 +2 1028.7 1028.2
03 17.04 СВ 1-2
{4}
20 км ясно +5.7 -0.3 65 +5 +5 1028.6 1028.1 +2.8
06 17.04 СВ 2-4
{4}
20 км ясно +8.6 +1.2 60 +7 +10 1029.5 1029.0 +2.8
09 17.04 ЮВ 1-3
{6}
20 км ясно +12.9 +2.1 48 +13 +25 опасность
простуды
1030.4 1029.9
12 17.04 СЗ 3-5
{5}
20 км ясно +14.7 +1.4 40 +14 +23 1029.9 1029.4
15 17.04 С 3-5
{7}
20 км ясно +13.4 +2.0 46 +12 +16 1029.4 1028.9
18 17.04 СВ 3-6
{7}
20 км ясно +11.6 +0.2 45 +10 +10 1030.2 1029.7 +16.0
21 17.04 СВ 3-4
{8}
20 км ясно +9.1 +1.6 59 +7 +7 1031.2 1030.7
00 18.04 СВ 2-3
{6}
20 км ясно +7.6 +2.2 69 +6 +6 1031.8 1031.3
03 18.04 В 2-3
{3}
20 км ясно +7.4 +1.2 65 +6 +6 1032.3 1031.8 +6.8
06 18.04 В 2-3
{4}
20 км ясно +11.1 +0.7 49 +10 +13 1033.5 1033.0 +6.8
09 18.04 С 2-3
{3}
20 км ясно +13.4 +2.1 46 +13 +23 1034.5 1034.0
12 18.04 С 4-6
{7}
20 км ясно +14.2 +2.2 44 +13 +20 1033.8 1033.3

 

Местоположение метеостанции Балтийск (Калининградская область, Россия): широта 54.65 долгота 19.88 высота над уровнем моря 4 м.

В архиве по умолчанию представлена погода в Балтийске за последнюю неделю. Архивные данные за месяц целиком и за предыдущие месяцы, начиная с января 2011 года, Вы можете получить, выбрав интересующий диапазон дат из раскрывающегося списка и нажав кнопку "Ввод!".


*Определитесь, кто Вы:
робот инопланетянин человек

Внимание! Время в таблицах - всемирное. Для получения местного времени необходимо прибавить поправку, которая равна 2 ч.

Смотрите также архив погоды в соседних городах и на ближайших метеорологических станциях:

Погода в Мамоново (Калининградская область, Россия) (20 км)
Погода в Рыбном Порту (Калининградская область, Россия) (37 км)
Погода в Пионерском (Калининградская область, Россия) (40 км)
Погода в Калининграде (Калининградская область, Россия) (48 км)
Погода в Эльблонге (Польша) (61 км)
Погода в Хеле (Польша) (68 км)
Погода в Рыбачем (Калининградская область, Россия) (84 км)
Погода на Авиабазе Гдыня-Оксывье (Польша) (88 км)
Погода в Железнодорожном (Калининградская область, Россия) (97 км)
Погода в Ольштыне (Польша) (104 км)

Пояснения к столбцам:

Ветер - указаны скорость ветра в м/с - средняя за 10 мин, порывы в срок и между сроками (в фигурных скобках) и направление, откуда дует ветер: С - северный, СВ - северо-восточный, В - восточный, ЮВ - юго-восточный, Ю - южный, ЮЗ - юго-западный, З - западный, СЗ - северо-западный.
Видимость - горизонтальная дальность видимости в метрах или километрах. При видимости от 1 до 10 км при отсутствии осадков обычно наблюдается дымка, при ухудшении видимости до 1 км и менее - туман. В сухую погоду видимость может ухудшаться дымом, пылью или мглою.
Явления - указаны атмосферные явления, наблюдавшиеся в срок или в последний час перед сроком; фигурными скобками обозначены явления, наблюдавшиеся между сроками (за 1-3 часа до срока); квадратными скобками обозначены град или гололедные отложения с указанием их диаметра в мм.
Облачность - указаны через наклонную черту общая и нижняя облачность в баллах и высота нижней границы облаков в метрах; квадратными скобками обозначены формы облаков: Ci - перистые, Cs - перисто-слоистые, Cc - перисто-кучевые, Ac - высококучевые, As - высокослоистые, Sc - слоисто-кучевые, Ns - слоисто-дождевые, Cu - кучевые, Cb - кучево-дождевые. Подробнее классификацию облаков см. в Атласе облаков (PDF).
T - Температура воздуха - температура, измеренная на высоте 2 м над землей.
Td - Температура точки росы - температура, при понижении до которой содержащийся в воздухе водяной пар достигнет насыщения.
f - Относительная влажность воздуха - влажноcть воздуха, измеренная на высоте 2 м над землей.
Te - Эффективная температура - температура, которую ощущает одетый по сезону человек в тени. Характеристика душности погоды. При расчете учитывается влияние влажности воздуха и скорости ветра на теплоощущения человека.
Tes - Эффективная температура на солнце - температура, которую ощущает человек, с поправкой на солнечный нагрев. Характеристика знойности погоды. Зависит от высоты солнца над горизонтом, облачности и скорости ветра. Ночью, в пасмурную погоду, а также при ветре 12 м/с и более поправка равна нулю.
P - Атмосферное давление - приведенное к уровню моря атмосферное давление.
Po - Атмосферное давление - измеренное на уровне метеостанции атмосферное давление.
Tmin - Минимальная температура - минимум температуры воздуха на высоте 2 м над землей.
Tmax - Максимальная температура - максимум температуры воздуха на высоте 2 м над землей.
R - Количество осадков - Количество выпавших осадков за период времени, мм. При наведении курсора мыши на число - период времени, за который выпало указанное количество осадков.
R24 - Количество осадков - Количество выпавших осадков за 24 часа, мм.
S - Снежный покров - Высота снежного покрова, см. При наведении курсора мыши на число - состояние снежного покрова и степень покрытия местности в баллах.